Jonesville, VA

4:41 PM EDT on March 25, 2017 (GMT -0400)
Jonesville

Weather History for K0VG - December, 2012

Change the Weather History Date:

Monday, December 31, 2012

  Actual Average (KLNP) Record (KLNP)
Temperature  
Mean Temperature 28 °F -  
Max Temperature 37 °F 39 °F 60 °F (1996)
Min Temperature 19 °F 24 °F 10 °F (2000)
Degree Days  
Heating Degree Days 37    
Moisture  
Dew Point 25 °F    
Average Humidity 83    
Maximum Humidity 100    
Minimum Humidity 60    
Precipitation  
Precipitation 0.00 in - - ()
Sea Level Pressure  
Sea Level Pressure 30.28 in    
Wind  
Wind Speed 0 mph (SSW)    
Max Wind Speed 6 mph    
Max Gust Speed -    
Visibility 10 miles    
Events      
Averages and records for this station are not official NWS values.
T = Trace of Precipitation, MM = Missing Value Source: NWS Daily Summary

Daily Weather History Graph

Daily Weather History Graph

Search for Another Location

Airport or City:

Trip Planner

Search our weather history database for the weather conditions in past years. The results will help you decide how hot, cold, wet, or windy it might be!

Date:

Astronomy

Dec. 31, 2012 Rise Set
Actual Time 7:45 AM EST 5:27 PM EST
Civil Twilight 7:16 AM EST 5:56 PM EST
Nautical Twilight 6:44 AM EST 6:28 PM EST
Astronomical Twilight 6:12 AM EST 6:59 PM EST
Moon 8:51 PM EST (12/31) 9:31 AM EST (12/31)
Length of Visible Light 10h 39m
Length of Day
9h 42m
Waning Gibbous, 90% of the Moon is Illuminated
Dec 31
Waning Gibbous
Jan 4
Last Quarter
Jan 11
New
Jan 18
First Quarter
Jan 26
Full

Hourly Weather History & Observations

Time (EST) Temp. Windchill Dew Point Humidity Pressure Visibility Wind Dir Wind Speed Gust Speed Precip Events Conditions
12:15 AM 23.0 °F - 23.0 °F 100% 30.39 in 10.0 mi Calm Calm - N/A   Clear
12:35 AM 23.0 °F - 21.2 °F 93% 30.38 in 9.0 mi Calm Calm - N/A   Clear
12:55 AM 23.0 °F - 21.2 °F 93% 30.38 in 9.0 mi Calm Calm - N/A   Clear
1:15 AM 21.2 °F - 19.4 °F 93% 30.37 in 8.0 mi Calm Calm - N/A   Clear
1:35 AM 19.4 °F - 19.4 °F 100% 30.37 in 8.0 mi Calm Calm - N/A   Clear
1:55 AM 21.2 °F - 19.4 °F 93% 30.38 in 8.0 mi Calm Calm - N/A   Clear
2:15 AM 19.4 °F - 19.4 °F 100% 30.38 in 10.0 mi Calm Calm - N/A   Clear
2:35 AM 19.4 °F - 17.6 °F 93% 30.38 in 9.0 mi Calm Calm - N/A   Clear
2:55 AM 21.2 °F - 19.4 °F 93% 30.36 in 9.0 mi Calm Calm - N/A   Clear
3:15 AM 21.2 °F - 19.4 °F 93% 30.37 in 9.0 mi Calm Calm - N/A   Clear
3:35 AM 19.4 °F - 19.4 °F 100% 30.37 in 8.0 mi Calm Calm - N/A   Clear
3:55 AM 21.2 °F - 19.4 °F 93% 30.36 in 10.0 mi Calm Calm - N/A   Clear
4:15 AM 21.2 °F - 19.4 °F 93% 30.36 in 10.0 mi Calm Calm - N/A   Clear
4:35 AM 23.0 °F - 19.4 °F 86% 30.36 in 10.0 mi Calm Calm - N/A   Clear
4:55 AM 23.0 °F - 21.2 °F 93% 30.35 in 10.0 mi Calm Calm - N/A   Clear
5:15 AM 23.0 °F - 21.2 °F 93% 30.34 in 10.0 mi Calm Calm - N/A   Clear
5:35 AM 23.0 °F - 21.2 °F 93% 30.34 in 10.0 mi Calm Calm - N/A   Clear
5:55 AM 23.0 °F - 21.2 °F 93% 30.35 in 10.0 mi Calm Calm - N/A   Clear
6:15 AM 23.0 °F - 23.0 °F 100% 30.37 in 10.0 mi Calm Calm - N/A   Clear
6:35 AM 23.0 °F - 21.2 °F 93% 30.35 in 10.0 mi Calm Calm - N/A   Clear
6:55 AM 23.0 °F - 21.2 °F 93% 30.36 in 10.0 mi Calm Calm - N/A   Clear
7:15 AM 23.0 °F - 21.2 °F 93% 30.36 in 10.0 mi Calm Calm - N/A   Clear
7:35 AM 23.0 °F - 23.0 °F 100% 30.37 in 10.0 mi Calm Calm - N/A   Clear
7:55 AM 23.0 °F - 23.0 °F 100% 30.35 in 10.0 mi Calm Calm - N/A   Clear
8:15 AM 24.8 °F - 23.0 °F 93% 30.34 in 7.0 mi Calm Calm - N/A   Clear
8:35 AM 24.8 °F - 23.0 °F 93% 30.34 in 8.0 mi Calm Calm - N/A   Clear
8:55 AM 24.8 °F - 23.0 °F 93% 30.34 in 9.0 mi Calm Calm - N/A   Clear
9:15 AM 24.8 °F - 23.0 °F 93% 30.35 in 9.0 mi Calm Calm - N/A   Partly Cloudy
9:35 AM 26.6 °F - 24.8 °F 93% 30.34 in 10.0 mi Calm Calm - N/A   Clear
9:55 AM 26.6 °F - 24.8 °F 93% 30.34 in 9.0 mi Calm Calm - N/A   Partly Cloudy
10:15 AM 28.4 °F - 24.8 °F 86% 30.35 in 9.0 mi Calm Calm - N/A   Scattered Clouds
10:35 AM 28.4 °F - 26.6 °F 93% 30.35 in 10.0 mi Calm Calm - N/A   Partly Cloudy
10:55 AM 30.2 °F - 24.8 °F 80% 30.34 in 10.0 mi Calm Calm - N/A   Clear
11:15 AM 32.0 °F - 26.6 °F 80% 30.34 in 10.0 mi Calm Calm - N/A   Clear
11:35 AM 32.0 °F - 26.6 °F 80% 30.33 in 10.0 mi Calm Calm - N/A   Clear
11:55 AM 32.0 °F - 26.6 °F 80% 30.30 in 10.0 mi Calm Calm - N/A   Clear
12:15 PM 33.8 °F - 24.8 °F 70% 30.29 in 10.0 mi Calm Calm - N/A   Clear
12:35 PM 35.6 °F - 24.8 °F 65% 30.28 in 10.0 mi Calm Calm - N/A   Clear
12:55 PM 35.6 °F - 24.8 °F 65% 30.26 in 10.0 mi Calm Calm - N/A   Clear
1:15 PM 37.4 °F 34.9 °F 26.6 °F 65% 30.26 in 10.0 mi SW 3.5 mph - N/A   Scattered Clouds
1:35 PM 37.4 °F 33.8 °F 26.6 °F 65% 30.25 in 10.0 mi SW 4.6 mph - N/A   Mostly Cloudy
1:55 PM 37.4 °F 32.8 °F 24.8 °F 60% 30.24 in 10.0 mi SW 5.8 mph - N/A   Scattered Clouds
2:15 PM 37.4 °F 32.8 °F 24.8 °F 60% 30.25 in 10.0 mi SW 5.8 mph - N/A   Overcast
2:35 PM 37.4 °F 33.8 °F 24.8 °F 60% 30.25 in 10.0 mi SSW 4.6 mph - N/A   Overcast
2:55 PM 37.4 °F 34.9 °F 24.8 °F 60% 30.22 in 10.0 mi South 3.5 mph - N/A   Mostly Cloudy
3:15 PM 37.4 °F - 24.8 °F 60% 30.21 in 10.0 mi Calm Calm - N/A   Mostly Cloudy
3:35 PM 37.4 °F 33.8 °F 24.8 °F 60% 30.21 in 10.0 mi SSW 4.6 mph - N/A   Mostly Cloudy
3:55 PM 37.4 °F - 24.8 °F 60% 30.22 in 10.0 mi Calm Calm - N/A   Mostly Cloudy
4:15 PM 37.4 °F - 24.8 °F 60% 30.23 in 10.0 mi Calm Calm - N/A   Overcast
4:35 PM 37.4 °F - 24.8 °F 60% 30.23 in 10.0 mi Calm Calm - N/A   Mostly Cloudy
4:55 PM 37.4 °F - 26.6 °F 65% 30.23 in 10.0 mi Calm Calm - N/A   Mostly Cloudy
5:15 PM 37.4 °F - 26.6 °F 65% 30.22 in 10.0 mi Calm Calm - N/A   Overcast
5:35 PM 37.4 °F - 26.6 °F 65% 30.21 in 10.0 mi Calm Calm - N/A   Overcast
5:55 PM 35.6 °F - 28.4 °F 75% 30.20 in 10.0 mi Calm Calm - N/A   Overcast
6:15 PM 35.6 °F - 26.6 °F 70% 30.20 in 10.0 mi Calm Calm - N/A   Overcast
6:35 PM 35.6 °F - 26.6 °F 70% 30.19 in 10.0 mi Calm Calm - N/A   Overcast
7:15 PM 35.6 °F - 28.4 °F 75% 30.19 in 10.0 mi Calm Calm - N/A   Overcast
7:35 PM 35.6 °F - 30.2 °F 81% 30.19 in 10.0 mi Calm Calm - N/A   Overcast
7:55 PM 35.6 °F - 30.2 °F 81% 30.18 in 10.0 mi Calm Calm - N/A   Overcast
8:15 PM 33.8 °F - 30.2 °F 87% 30.17 in 10.0 mi Calm Calm - N/A   Mostly Cloudy
8:35 PM 33.8 °F - 30.2 °F 87% 30.17 in 10.0 mi Calm Calm - N/A   Overcast
8:55 PM 33.8 °F - 30.2 °F 87% 30.17 in 10.0 mi Calm Calm - N/A   Unknown
9:15 PM 33.8 °F - 32.0 °F 93% 30.16 in 10.0 mi Calm Calm - N/A   Unknown
9:35 PM 33.8 °F - 32.0 °F 93% 30.16 in 10.0 mi Calm Calm - N/A   Overcast
9:55 PM 33.8 °F - 30.2 °F 87% 30.14 in 10.0 mi Calm Calm - N/A   Unknown
10:15 PM 33.8 °F - 30.2 °F 87% 30.14 in 10.0 mi Calm Calm - N/A   Overcast
10:35 PM 33.8 °F - 30.2 °F 87% 30.15 in 10.0 mi Calm Calm - N/A   Overcast
10:55 PM 35.6 °F - 30.2 °F 81% 30.15 in 10.0 mi Calm Calm - N/A   Overcast
11:15 PM 33.8 °F - 32.0 °F 93% 30.16 in 10.0 mi Calm Calm - N/A   Overcast
11:35 PM 33.8 °F - 32.0 °F 93% 30.14 in 10.0 mi Calm Calm - N/A   Overcast